This is the latest recevied weather packets stored in our database for station/object N3WGC-14. If no packets are shown the sender has not sent any weather packets the latest 10 day(s).
| Time | Temp. | Humidity | Pressure | Rain* | Wind** | Luminosity | Snow |
|---|---|---|---|---|---|---|---|
| 1777314013 | 17.22° C | 67% | 1023.9 hPa | 0 mm | - | - | - |
| 1777313713 | 16.67° C | 68% | 1023.9 hPa | 0 mm | - | - | - |
| 1777313413 | 16.67° C | 67% | 1023.9 hPa | 0 mm | - | - | - |
| 1777313113 | 16.67° C | 68% | 1024 hPa | 0 mm | - | - | - |
| 1777312813 | 16.67° C | 68% | 1024.1 hPa | 0 mm | - | - | - |
| 1777312513 | 16.67° C | 69% | 1024.1 hPa | 0 mm | - | - | - |
| 1777312212 | 16.67° C | 69% | 1024 hPa | 0 mm | - | - | - |
| 1777311912 | 16.67° C | 71% | 1024.1 hPa | 0 mm | - | - | - |
| 1777311612 | 16.11° C | 72% | 1024.1 hPa | 0 mm | - | - | - |
| 1777311312 | 16.11° C | 71% | 1024.2 hPa | 0 mm | - | - | - |
| 1777311012 | 16.11° C | 73% | 1024.3 hPa | 0 mm | - | - | - |
| 1777310712 | 15.56° C | 72% | 1024.4 hPa | 0 mm | - | - | - |
| 1777310412 | 16.11° C | 72% | 1024.5 hPa | 0 mm | - | - | - |
| 1777310111 | 16.11° C | 75% | 1024.6 hPa | 0 mm | - | - | - |
| 1777309811 | 16.11° C | 74% | 1024.6 hPa | 0 mm | - | - | - |
| 1777309511 | 15.56° C | 76% | 1024.5 hPa | 0 mm | - | - | - |
| 1777309211 | 15.56° C | 76% | 1024.5 hPa | 0 mm | - | - | - |
| 1777308911 | 15.56° C | 73% | 1024.6 hPa | 0 mm | - | - | - |
| 1777308611 | 15.56° C | 74% | 1024.6 hPa | 0 mm | - | - | - |
| 1777308311 | 15.56° C | 71% | 1024.7 hPa | 0 mm | - | - | - |
| 1777308010 | 15.56° C | 74% | 1024.8 hPa | 0 mm | - | - | - |
| 1777307710 | 15.56° C | 74% | 1024.6 hPa | 0 mm | - | - | - |
| 1777307410 | 15° C | 75% | 1024.6 hPa | 0 mm | - | - | - |
| 1777307110 | 15° C | 77% | 1024.6 hPa | 0 mm | - | - | - |
| 1777306810 | 15° C | 79% | 1024.6 hPa | 0 mm | - | - | - |
* Rain latest hour (hover to see other rain measurements)
** Current wind speed in m/s (hover to see current wind gust speed)